Crossville, TN

12:59 AM CDT on October 19, 2017 (GMT -0500)
Crossville Memorial-Whitson

Weather History for KCSV - February, 2014

Change the Weather History Date:

Saturday, February 8, 2014

  Actual Average Record
Temperature  
Mean Temperature 34 °F 38 °F  
Max Temperature 40 °F 47 °F 66 °F (1994)
Min Temperature 28 °F 29 °F 0 °F (1995)
Degree Days  
Heating Degree Days 31    
Month to date heating degree days 235  
Since 1 July heating degree days 3007  
Cooling Degree Days 0    
Month to date cooling degree days 0  
Year to date cooling degree days 0  
Moisture  
Dew Point 27 °F    
Average Humidity 77    
Maximum Humidity 89    
Minimum Humidity 64    
Precipitation  
Precipitation 0.00 in 0.15 in 1.11 in (1973)
Month to date precipitation 1.68 1.28  
Year to date precipitation 3.91 6.04  
Sea Level Pressure  
Sea Level Pressure 30.20 in    
Wind  
Wind Speed 3 mph (West)    
Max Wind Speed 10 mph    
Max Gust Speed 14 mph    
Visibility 10 miles    
Events      
T = Trace of Precipitation, MM = Missing Value Source: NWS Daily Summary

Daily Weather History Graph

Daily Weather History Graph

Search for Another Location

Airport or City:

Trip Planner

Search our weather history database for the weather conditions in past years. The results will help you decide how hot, cold, wet, or windy it might be!

Date:

Astronomy

Feb. 08, 2014 Rise Set
Actual Time 6:34 AM CST 5:14 PM CST
Civil Twilight 6:08 AM CST 5:41 PM CST
Nautical Twilight 5:37 AM CST 6:11 PM CST
Astronomical Twilight 5:07 AM CST 6:41 PM CST
Moon 12:11 PM CST (2/8) 1:43 AM CST (2/8)
Length of Visible Light 11h 33m
Length of Day
10h 40m
Waxing Gibbous, 69% of the Moon is Illuminated
Feb 8
Waxing Gibbous
Feb 14
Full
Feb 22
Last Quarter
Mar 1
New
Mar 8
First Quarter

Hourly Weather History & Observations

Time (CST) Temp. Windchill Dew Point Humidity Pressure Visibility Wind Dir Wind Speed Gust Speed Precip Events Conditions
12:53 AM 28.9 °F 25.2 °F 21.9 °F 75% 30.26 in 9.0 mi North 3.5 mph - N/A   Overcast
1:53 AM 28.9 °F - 21.9 °F 75% 30.25 in 9.0 mi Calm Calm - N/A   Overcast
2:53 AM 28.9 °F - 21.9 °F 75% 30.24 in 9.0 mi Calm Calm - N/A   Overcast
3:53 AM 28.9 °F - 23.0 °F 78% 30.24 in 8.0 mi Calm Calm - N/A   Overcast
4:53 AM 28.0 °F 22.8 °F 23.0 °F 81% 30.23 in 9.0 mi ENE 4.6 mph - N/A   Overcast
5:53 AM 28.9 °F - 23.0 °F 78% 30.24 in 10.0 mi Calm Calm - N/A   Overcast
6:53 AM 28.9 °F 23.9 °F 21.9 °F 75% 30.22 in 10.0 mi NE 4.6 mph - N/A   Overcast
7:53 AM 30.0 °F - 21.9 °F 72% 30.24 in 10.0 mi Calm Calm - N/A   Overcast
8:53 AM 32.0 °F - 23.0 °F 69% 30.26 in 10.0 mi Calm Calm - N/A   Overcast
9:12 AM 33.8 °F - 23.0 °F 65% 30.21 in 8.0 mi Calm Calm - N/A   Overcast
9:27 AM 33.8 °F - 23.0 °F 65% 30.21 in 6.0 mi Calm Calm - N/A   Haze
9:53 AM 34.0 °F - 24.1 °F 67% 30.25 in 10.0 mi Calm Calm - N/A   Overcast
10:40 AM 37.4 °F 32.8 °F 24.8 °F 60% 30.19 in 10.0 mi Variable 5.8 mph - N/A   Overcast
10:53 AM 37.0 °F 32.4 °F 26.1 °F 65% 30.22 in 10.0 mi South 5.8 mph - N/A   Overcast
11:53 AM 37.0 °F 34.5 °F 27.0 °F 67% 30.20 in 10.0 mi SW 3.5 mph - N/A   Overcast
12:53 PM 39.0 °F 35.7 °F 28.9 °F 67% 30.18 in 10.0 mi Variable 4.6 mph - N/A   Overcast
1:53 PM 39.0 °F 33.4 °F 30.9 °F 73% 30.17 in 10.0 mi West 8.1 mph - N/A   Overcast
2:53 PM 37.9 °F 33.5 °F 30.9 °F 76% 30.16 in 10.0 mi WNW 5.8 mph - N/A   Overcast
3:53 PM 37.9 °F 35.5 °F 30.9 °F 76% 30.15 in 10.0 mi West 3.5 mph - N/A   Overcast
4:53 PM 37.9 °F 34.4 °F 30.9 °F 76% 30.15 in 10.0 mi Variable 4.6 mph - N/A   Overcast
5:53 PM 37.0 °F 32.4 °F 30.9 °F 79% 30.18 in 10.0 mi West 5.8 mph - N/A   Overcast
6:29 PM 37.4 °F 34.9 °F 30.2 °F 75% 30.14 in 10.0 mi WSW 3.5 mph - N/A   Overcast
6:53 PM 37.0 °F - 30.9 °F 79% 30.16 in 10.0 mi Calm Calm - N/A   Overcast
7:53 PM 36.0 °F 30.3 °F 30.9 °F 82% 30.19 in 10.0 mi West 6.9 mph - N/A   Overcast
8:53 PM 36.0 °F 32.1 °F 30.9 °F 82% 30.19 in 10.0 mi West 4.6 mph - N/A   Overcast
9:53 PM 36.0 °F - 30.9 °F 82% 30.19 in 10.0 mi Calm Calm - N/A   Overcast
10:53 PM 36.0 °F 32.1 °F 32.0 °F 86% 30.14 in 10.0 mi SSE 4.6 mph - N/A   Overcast
11:53 PM 36.0 °F - 32.0 °F 86% 30.14 in 10.0 mi Calm Calm - N/A   Overcast